Location: Cheyres
(46.8153°N, 6.7877°E)
Time: 11:33:13
(UTC+00:00)

Gbstr 26 Del rocket - Pass Details

Date: 23 September 2021
Orbit: 492 x 1263 km, 51.8° (Epoch: 25 October)

Event Time Altitude Azimuth Distance (km) Brightness Sun altitude
Exits shadow 04:43:28 - 294° (WNW) 3,859 6.6 -7.2°
Reaches altitude 10° 04:46:04 10° 284° (WNW) 3,098 6.0 -6.8°
Maximum altitude 04:51:45 24° 235° (SW) 2,078 5.3 -5.8°
Drops below altitude 10° 04:56:48 10° 185° (S) 2,707 6.2 -5.0°
Sets 04:59:41 0° 171° (S) 3,515 7.0 -4.5°
